This is the latest recevied weather packets stored in our database for station/object SV2LPQ-2. If no packets are shown the sender has not sent any weather packets the latest 10 day(s).
| Time | Temp. | Humidity | Pressure | Rain* | Wind** | Luminosity | Snow |
|---|---|---|---|---|---|---|---|
| 1777697750 | 8.33° C | 70% | 1042.5 hPa | 0 mm | - | - | - |
| 1777697249 | 8.33° C | 71% | 1042.5 hPa | 0 mm | - | - | - |
| 1777696749 | 7.78° C | 72% | 1042.5 hPa | 0 mm | - | - | - |
| 1777696249 | 7.78° C | 71% | 1042.5 hPa | 0 mm | - | - | - |
| 1777695749 | 7.22° C | 72% | 1042.5 hPa | 0 mm | - | - | - |
| 1777695249 | 6.67° C | 75% | 1042.5 hPa | 0 mm | - | - | - |
| 1777694749 | 6.67° C | 75% | 1042.5 hPa | 0 mm | - | - | - |
| 1777694249 | 6.67° C | 75% | 1042.5 hPa | 0 mm | - | - | - |
| 1777693748 | 6.11° C | 78% | 1042.5 hPa | 0 mm | - | - | - |
| 1777693248 | 6.11° C | 78% | 1042.5 hPa | 0 mm | - | - | - |
| 1777692748 | 6.11° C | 77% | 1042.5 hPa | 0 mm | - | - | - |
| 1777692248 | 6.11° C | 77% | 1042.5 hPa | 0 mm | - | - | - |
| 1777691748 | 6.67° C | 77% | 1042.5 hPa | 0 mm | - | - | - |
| 1777691248 | 6.67° C | 77% | 1042.5 hPa | 0 mm | - | - | - |
| 1777690748 | 6.67° C | 77% | 1042.5 hPa | 0 mm | - | - | - |
| 1777690248 | 6.67° C | 80% | 1042.5 hPa | 0 mm | - | - | - |
| 1777689748 | 6.67° C | 79% | 1042.5 hPa | 0 mm | - | - | - |
| 1777689248 | 6.67° C | 80% | 1042.5 hPa | 0 mm | - | - | - |
| 1777688748 | 6.67° C | 82% | 1042.5 hPa | 0 mm | - | - | - |
| 1777687747 | 7.22° C | 80% | 1042.5 hPa | 0 mm | - | - | - |
| 1777673744 | 10.56° C | 79% | 1042.5 hPa | 0 mm | - | - | - |
| 1777673244 | 10.56° C | 79% | 1042.5 hPa | 0 mm | - | - | - |
| 1777672244 | 10.56° C | 77% | 1042.5 hPa | 0 mm | - | - | - |
| 1777670743 | 10.56° C | 78% | 1042.5 hPa | 0 mm | - | - | - |
| 1777670243 | 10.56° C | 78% | 1042.5 hPa | 0 mm | - | - | - |
* Rain latest hour (hover to see other rain measurements)
** Current wind speed in m/s (hover to see current wind gust speed)